FENGYUN 1C DEB, 32086

Orbit data source: Space-Track

FENGYUN 1C DEB, 32086 is space debris in SSO originally from a launch on Mon, 10 May 1999 UTC launched from the Taiyaun Space Center, China (TSC). Fengyun 1C debris stems from the Chinese weather satellite Fengyun-1C, which was intentionally destroyed by a Chinese anti-satellite missile in 2007. This event dramatically increased the amount of space debris, with thousands of trackable fragments posing hazards to satellites and human spaceflight. The Fengyun 1C debris cloud has become a focal point in discussions about space sustainability and the need for international regulations to prevent the creation of new debris.

Loading next visibility...
Identifier
32086, 1999-025CQC
Orbit
SSO
Country
Flag of CNCN / PRC
Related business
Manufacturer
Unknown
Mission
Spacecraft
Bus & Motor
Unknown
Mass
Unknown
Launch date (UTC)
1999-05-10 (27 years ago)
Launch vehicle
Unknown
Launch site
Taiyaun Space Center, China (TSC)
Object type
Payload
Rocket body
Debris
Shape & HBR
Unknown shape, 0.1 m
Radar Cross Section
Small (<0.1 m²)

Expand to show TLE details & history
Last TLE update: 3 days ago

TLE from 3 days ago
0 FENGYUN 1C DEB
1 32086U 99025CQC 25351.43309418  .00001784  00000-0  15448-2 0  9996
2 32086  99.2703  46.1713 0299523 123.4273 239.5901 13.68916200618454
Epoch: 2025-12-17T10:23Z
TLE epoch observation values (Epoch: 2025-12-17T10:23:39.337Z)
Latitude
-0.00004°
Longitude
163.95438°
Altitude
1,123.047 km
Speed
7.233 km/s
True Right ascension
03h 04m 41s
True Declination
0° 00' 00"
Sunlit
Object was in full shadow at epoch
Visualization orbit readout
Latitude
Unknown
Longitude
Unknown
Altitude
Unknown
Speed
Unknown
Apparent Right ascension
Unknown
Apparent Declination
Unknown
Sunlit
N/A
Visualization observer readout
Local Sidereal Time
01:15:46
Azimuth
Unknown
Elevation
Unknown
Doppler factor
Unknown
Orbital elements
Apogee altitude
1,221.729 km
Perigee altitude
779.702 km
Semi-major axis
7,378.852 km
Eccentricity
0.02995
Inclination
99.2703°
RAAN
46.1713°
Arg. of periapsis
123.4273°
True anomaly
236.68635°
Mean anomaly
239.5901°
Eccentric anomaly
238.13263°
Mean motion
3.42421 °/min
Orbital period
105.13 mins
BSTAR
0.0015448
Loading maneuver chart data...
Computing Atmospheric mass density...

Documentation

Showing up to 5 results
|